Time,TemperatureF,DewpointF,PressureIn,WindDirection,WindDirectionDegrees,WindSpeedMPH,WindSpeedGustMPH,Humidity,HourlyPrecipIn,Conditions,Clouds,dailyrainin,SolarRadiationWatts/m^2,SoftwareType,DateUTC
2013-04-17 00:00:00,66.2,60.2,30.16,West,272,5.0,5.0,81,0.34,,,0.01,0,Wunderground v.1.15,2013-04-17 04:00:00,
2013-04-17 00:10:00,65.1,60.1,30.15,NNW,329,2.0,2.0,84,0.13,,,0.07,0,Wunderground v.1.15,2013-04-17 04:10:00,
2013-04-17 00:19:00,64.1,60.2,30.16,WSW,257,2.0,2.0,87,0.07,,,0.08,0,Wunderground v.1.15,2013-04-17 04:19:00,
2013-04-17 00:29:00,63.6,60.3,30.16,SW,219,0.0,0.0,89,0.10,,,0.10,0,Wunderground v.1.15,2013-04-17 04:29:00,
2013-04-17 00:40:00,63.0,60.0,30.15,SW,219,0.0,0.0,90,0.11,,,0.12,0,Wunderground v.1.15,2013-04-17 04:40:00,
2013-04-17 00:50:00,62.6,59.9,30.14,SW,219,0.0,0.0,91,0.08,,,0.14,0,Wunderground v.1.15,2013-04-17 04:50:00,
2013-04-17 00:59:00,62.7,60.3,30.14,SW,219,0.0,0.0,92,0.06,,,0.14,0,Wunderground v.1.15,2013-04-17 04:59:00,
2013-04-17 01:09:00,62.5,60.4,30.15,SW,219,0.0,0.0,93,0.09,,,0.16,0,Wunderground v.1.15,2013-04-17 05:09:00,
2013-04-17 01:20:00,62.1,60.1,30.13,SW,219,0.0,0.0,93,0.07,,,0.17,0,Wunderground v.1.15,2013-04-17 05:20:00,
2013-04-17 01:30:00,62.1,60.4,30.13,SW,219,0.0,0.0,94,0.00,,,0.17,0,Wunderground v.1.15,2013-04-17 05:30:00,
2013-04-17 01:40:00,61.9,60.2,30.13,SW,219,0.0,0.0,94,0.00,,,0.17,0,Wunderground v.1.15,2013-04-17 05:40:00,
2013-04-17 01:49:00,61.8,60.1,30.11,SW,219,0.0,0.0,94,0.00,,,0.17,0,Wunderground v.1.15,2013-04-17 05:49:00,
2013-04-17 01:59:00,61.6,60.2,30.11,SW,219,0.0,0.0,95,0.00,,,0.17,0,Wunderground v.1.15,2013-04-17 05:59:00,
2013-04-17 02:09:00,61.4,60.0,30.10,SW,219,0.0,0.0,95,0.00,,,0.17,0,Wunderground v.1.15,2013-04-17 06:09:00,
2013-04-17 02:20:00,61.4,60.0,30.10,SW,219,0.0,0.0,95,0.00,,,0.17,0,Wunderground v.1.15,2013-04-17 06:20:00,
2013-04-17 02:30:00,61.4,60.0,30.10,SW,219,0.0,0.0,95,0.00,,,0.17,0,Wunderground v.1.15,2013-04-17 06:30:00,
2013-04-17 02:39:00,61.1,59.7,30.10,SW,219,0.0,0.0,95,0.00,,,0.17,0,Wunderground v.1.15,2013-04-17 06:39:00,
2013-04-17 02:50:00,61.1,59.7,30.09,SW,219,0.0,0.0,95,0.00,,,0.17,0,Wunderground v.1.15,2013-04-17 06:50:00,
2013-04-17 02:59:00,61.1,60.0,30.09,SW,219,0.0,0.0,96,0.00,,,0.17,0,Wunderground v.1.15,2013-04-17 06:59:00,
2013-04-17 03:10:00,60.8,59.4,30.08,SW,219,0.0,0.0,95,0.00,,,0.17,0,Wunderground v.1.15,2013-04-17 07:10:00,
2013-04-17 03:19:00,60.4,59.3,30.08,SW,219,0.0,0.0,96,0.00,,,0.17,0,Wunderground v.1.15,2013-04-17 07:19:00,
2013-04-17 03:30:00,60.5,59.4,30.08,SW,219,0.0,0.0,96,0.00,,,0.17,0,Wunderground v.1.15,2013-04-17 07:30:00,
2013-04-17 03:39:00,60.4,59.3,30.08,SW,219,0.0,0.0,96,0.00,,,0.17,0,Wunderground v.1.15,2013-04-17 07:39:00,
2013-04-17 03:50:00,59.4,58.0,30.09,SW,219,0.0,0.0,95,0.00,,,0.17,0,Wunderground v.1.15,2013-04-17 07:50:00,
2013-04-17 04:00:00,59.0,57.9,30.09,SW,219,0.0,0.0,96,0.00,,,0.17,0,Wunderground v.1.15,2013-04-17 08:00:00,
2013-04-17 04:10:00,58.6,57.5,30.09,SW,219,0.0,0.0,96,0.00,,,0.17,0,Wunderground v.1.15,2013-04-17 08:10:00,
2013-04-17 04:19:00,58.5,57.4,30.09,SW,219,0.0,0.0,96,0.00,,,0.17,0,Wunderground v.1.15,2013-04-17 08:19:00,
2013-04-17 04:30:00,58.8,57.7,30.10,SW,219,0.0,0.0,96,0.00,,,0.17,0,Wunderground v.1.15,2013-04-17 08:30:00,
2013-04-17 04:39:00,59.0,57.9,30.10,NW,315,0.0,0.0,96,0.00,,,0.17,0,Wunderground v.1.15,2013-04-17 08:39:00,
2013-04-17 04:50:00,58.5,57.4,30.10,North,355,0.0,0.0,96,0.00,,,0.17,0,Wunderground v.1.15,2013-04-17 08:50:00,
2013-04-17 04:59:00,58.7,57.9,30.11,North,355,0.0,0.0,97,0.00,,,0.17,0,Wunderground v.1.15,2013-04-17 08:59:00,
2013-04-17 05:09:00,58.0,56.9,30.11,North,355,0.0,0.0,96,0.00,,,0.17,0,Wunderground v.1.15,2013-04-17 09:09:00,
2013-04-17 05:20:00,57.1,56.0,30.12,North,355,0.0,0.0,96,0.00,,,0.17,0,Wunderground v.1.15,2013-04-17 09:20:00,
2013-04-17 05:30:00,57.2,56.1,30.12,North,355,0.0,0.0,96,0.00,,,0.17,0,Wunderground v.1.15,2013-04-17 09:30:00,
2013-04-17 05:39:00,56.4,55.3,30.12,North,355,0.0,0.0,96,0.00,,,0.17,0,Wunderground v.1.15,2013-04-17 09:39:00,
2013-04-17 05:49:00,55.8,54.7,30.12,North,355,0.0,0.0,96,0.00,,,0.17,0,Wunderground v.1.15,2013-04-17 09:49:00,
2013-04-17 05:59:00,55.3,54.2,30.12,North,355,0.0,0.0,96,0.00,,,0.17,0,Wunderground v.1.15,2013-04-17 09:59:00,
2013-04-17 06:10:00,55.4,54.6,30.13,North,355,0.0,0.0,97,0.00,,,0.17,0,Wunderground v.1.15,2013-04-17 10:10:00,
2013-04-17 06:19:00,55.0,54.2,30.13,North,355,0.0,0.0,97,0.00,,,0.17,0,Wunderground v.1.15,2013-04-17 10:19:00,
2013-04-17 06:30:00,55.1,54.3,30.13,North,355,0.0,0.0,97,0.00,,,0.17,0,Wunderground v.1.15,2013-04-17 10:30:00,
2013-04-17 06:40:00,55.0,54.2,30.14,North,355,0.0,0.0,97,0.00,,,0.17,7,Wunderground v.1.15,2013-04-17 10:40:00,
2013-04-17 06:50:00,55.4,54.6,30.14,North,355,0.0,0.0,97,0.00,,,0.17,14,Wunderground v.1.15,2013-04-17 10:50:00,
2013-04-17 06:59:00,55.5,54.7,30.14,North,355,0.0,0.0,97,0.00,,,0.17,21,Wunderground v.1.15,2013-04-17 10:59:00,
2013-04-17 07:09:00,56.3,55.5,30.14,North,355,0.0,0.0,97,0.00,,,0.17,37,Wunderground v.1.15,2013-04-17 11:09:00,
2013-04-17 07:20:00,57.6,56.8,30.14,North,355,0.0,0.0,97,0.00,,,0.17,51,Wunderground v.1.15,2013-04-17 11:20:00,
2013-04-17 07:29:00,57.9,57.1,30.15,North,355,0.0,0.0,97,0.00,,,0.17,65,Wunderground v.1.15,2013-04-17 11:29:00,
2013-04-17 07:40:00,58.4,57.6,30.15,North,355,0.0,0.0,97,0.00,,,0.17,72,Wunderground v.1.15,2013-04-17 11:40:00,
2013-04-17 07:50:00,59.0,58.4,30.15,North,355,0.0,0.0,98,0.00,,,0.17,84,Wunderground v.1.15,2013-04-17 11:50:00,
2013-04-17 07:59:00,59.5,58.9,30.16,North,355,0.0,0.0,98,0.00,,,0.17,91,Wunderground v.1.15,2013-04-17 11:59:00,
2013-04-17 08:09:00,60.1,59.5,30.16,North,355,0.0,0.0,98,0.00,,,0.17,107,Wunderground v.1.15,2013-04-17 12:09:00,
2013-04-17 08:20:00,60.6,60.0,30.16,North,355,0.0,0.0,98,0.00,,,0.17,156,Wunderground v.1.15,2013-04-17 12:20:00,
2013-04-17 08:29:00,60.7,60.1,30.16,North,355,0.0,0.0,98,0.00,,,0.17,156,Wunderground v.1.15,2013-04-17 12:29:00,
2013-04-17 08:39:00,61.1,60.5,30.16,North,355,0.0,0.0,98,0.00,,,0.17,142,Wunderground v.1.15,2013-04-17 12:39:00,
2013-04-17 08:49:00,61.1,60.5,30.16,North,355,0.0,0.0,98,0.00,,,0.17,169,Wunderground v.1.15,2013-04-17 12:49:00,
2013-04-17 09:00:00,61.2,60.6,30.16,North,355,0.0,0.0,98,0.00,,,0.17,192,Wunderground v.1.15,2013-04-17 13:00:00,
2013-04-17 09:09:00,61.7,61.1,30.16,North,355,0.0,0.0,98,0.00,,,0.17,244,Wunderground v.1.15,2013-04-17 13:09:00,
2013-04-17 09:19:00,62.0,61.4,30.16,North,355,0.0,0.0,98,0.00,,,0.17,274,Wunderground v.1.15,2013-04-17 13:19:00,
2013-04-17 09:30:00,62.6,62.0,30.16,North,355,0.0,0.0,98,0.00,,,0.18,320,Wunderground v.1.15,2013-04-17 13:30:00,
2013-04-17 09:40:00,62.9,62.3,30.17,North,355,0.0,1.0,98,0.00,,,0.18,211,Wunderground v.1.15,2013-04-17 13:40:00,
2013-04-17 09:49:00,63.1,62.5,30.17,NNE,14,1.0,1.0,98,0.00,,,0.18,306,Wunderground v.1.15,2013-04-17 13:49:00,
2013-04-17 09:59:00,63.3,62.7,30.17,North,355,1.0,2.0,98,0.00,,,0.18,190,Wunderground v.1.15,2013-04-17 13:59:00,
2013-04-17 10:10:00,63.4,62.8,30.16,NNE,19,2.0,2.0,98,0.00,,,0.18,322,Wunderground v.1.15,2013-04-17 14:10:00,
2013-04-17 10:20:00,63.8,62.9,30.17,NNE,13,1.0,2.0,97,0.00,,,0.18,577,Wunderground v.1.15,2013-04-17 14:20:00,
2013-04-17 10:30:00,64.4,63.2,30.17,NNW,335,2.0,2.0,96,0.00,,,0.18,243,Wunderground v.1.15,2013-04-17 14:30:00,
2013-04-17 10:39:00,65.2,63.7,30.17,NNE,24,2.0,3.0,95,0.00,,,0.18,816,Wunderground v.1.15,2013-04-17 14:39:00,
2013-04-17 10:50:00,66.2,63.8,30.18,NNE,12,3.0,3.0,92,0.00,,,0.18,784,Wunderground v.1.15,2013-04-17 14:50:00,
2013-04-17 11:00:00,66.9,63.9,30.18,North,9,2.0,3.0,90,0.00,,,0.18,582,Wunderground v.1.15,2013-04-17 15:00:00,
2013-04-17 11:10:00,66.8,62.5,30.18,NNE,18,2.0,2.0,86,0.00,,,0.18,798,Wunderground v.1.15,2013-04-17 15:10:00,
2013-04-17 11:19:00,67.9,62.9,30.18,NNE,16,2.0,2.0,84,0.00,,,0.18,786,Wunderground v.1.15,2013-04-17 15:19:00,
2013-04-17 11:29:00,68.7,63.0,30.18,East,92,2.0,2.0,82,0.00,,,0.18,946,Wunderground v.1.15,2013-04-17 15:29:00,
2013-04-17 11:39:00,68.1,62.4,30.18,NE,51,2.0,2.0,82,0.00,,,0.18,276,Wunderground v.1.15,2013-04-17 15:39:00,
2013-04-17 11:50:00,67.4,62.1,30.18,NE,51,1.0,3.0,83,0.00,,,0.18,193,Wunderground v.1.15,2013-04-17 15:50:00,
2013-04-17 11:59:00,66.9,61.6,30.18,NNE,13,1.0,2.0,83,0.00,,,0.18,127,Wunderground v.1.15,2013-04-17 15:59:00,
2013-04-17 12:10:00,66.6,60.9,30.18,NNE,14,3.0,3.0,82,0.00,,,0.18,127,Wunderground v.1.15,2013-04-17 16:10:00,
2013-04-17 12:19:00,66.0,60.3,30.18,North,5,3.0,4.0,82,0.00,,,0.18,88,Wunderground v.1.15,2013-04-17 16:19:00,
2013-04-17 12:29:00,64.1,58.8,30.18,NNE,32,4.0,4.0,83,0.00,,,0.18,246,Wunderground v.1.15,2013-04-17 16:29:00,
2013-04-17 12:40:00,64.3,59.4,30.18,NE,35,3.0,6.0,84,0.00,,,0.18,267,Wunderground v.1.15,2013-04-17 16:40:00,
2013-04-17 12:49:00,64.0,58.7,30.18,NNE,28,4.0,4.0,83,0.00,,,0.18,232,Wunderground v.1.15,2013-04-17 16:49:00,
2013-04-17 13:00:00,63.0,57.8,30.19,North,355,5.0,5.0,83,0.00,,,0.18,260,Wunderground v.1.15,2013-04-17 17:00:00,
2013-04-17 13:09:00,63.2,58.3,30.18,NNE,22,4.0,4.0,84,0.00,,,0.18,568,Wunderground v.1.15,2013-04-17 17:09:00,
2013-04-17 13:20:00,64.7,59.1,30.18,NNE,17,3.0,6.0,82,0.00,,,0.18,538,Wunderground v.1.15,2013-04-17 17:20:00,
2013-04-17 13:29:00,64.5,58.2,30.18,NNE,30,4.0,4.0,80,0.00,,,0.18,522,Wunderground v.1.15,2013-04-17 17:29:00,
2013-04-17 13:40:00,64.8,58.5,30.18,North,355,6.0,6.0,80,0.00,,,0.18,429,Wunderground v.1.15,2013-04-17 17:40:00,
2013-04-17 13:49:00,64.1,57.8,30.18,NNE,21,5.0,6.0,80,0.00,,,0.18,297,Wunderground v.1.15,2013-04-17 17:49:00,
2013-04-17 14:00:00,64.2,58.6,30.18,NNE,32,5.0,5.0,82,0.00,,,0.18,867,Wunderground v.1.15,2013-04-17 18:00:00,
2013-04-17 14:09:00,66.1,60.4,30.17,NE,34,5.0,5.0,82,0.00,,,0.18,824,Wunderground v.1.15,2013-04-17 18:09:00,
2013-04-17 14:20:00,65.6,58.9,30.17,NNE,17,4.0,8.0,79,0.00,,,0.18,779,Wunderground v.1.15,2013-04-17 18:20:00,
2013-04-17 14:29:00,65.9,59.6,30.17,NNE,16,4.0,4.0,80,0.00,,,0.18,756,Wunderground v.1.15,2013-04-17 18:29:00,
2013-04-17 14:39:00,66.6,59.9,30.17,NE,46,3.0,4.0,79,0.00,,,0.18,745,Wunderground v.1.15,2013-04-17 18:39:00,
2013-04-17 14:49:00,66.6,59.5,30.16,NNE,25,3.0,3.0,78,0.00,,,0.18,707,Wunderground v.1.15,2013-04-17 18:49:00,
2013-04-17 15:00:00,66.8,59.7,30.16,NNE,32,3.0,3.0,78,0.00,,,0.18,598,Wunderground v.1.15,2013-04-17 19:00:00,
2013-04-17 15:09:00,67.6,59.8,30.17,NE,45,3.0,3.0,76,0.00,,,0.18,643,Wunderground v.1.15,2013-04-17 19:09:00,
2013-04-17 15:20:00,67.6,60.1,30.16,North,360,2.0,2.0,77,0.00,,,0.18,656,Wunderground v.1.15,2013-04-17 19:20:00,
2013-04-17 15:30:00,68.0,60.5,30.16,NNE,14,3.0,3.0,77,0.00,,,0.18,701,Wunderground v.1.15,2013-04-17 19:30:00,
2013-04-17 15:39:00,68.3,60.4,30.15,NE,44,3.0,3.0,76,0.00,,,0.18,661,Wunderground v.1.15,2013-04-17 19:39:00,
2013-04-17 15:49:00,68.7,60.1,30.14,East,88,3.0,3.0,74,0.00,,,0.18,599,Wunderground v.1.15,2013-04-17 19:49:00,
2013-04-17 16:00:00,69.2,61.3,30.14,NE,38,3.0,3.0,76,0.00,,,0.18,568,Wunderground v.1.15,2013-04-17 20:00:00,
2013-04-17 16:10:00,69.4,60.8,30.14,NNE,16,3.0,3.0,74,0.00,,,0.18,605,Wunderground v.1.15,2013-04-17 20:10:00,
2013-04-17 16:20:00,69.6,61.3,30.14,NNW,335,3.0,3.0,75,0.00,,,0.18,380,Wunderground v.1.15,2013-04-17 20:20:00,
2013-04-17 16:29:00,69.7,61.4,30.14,NNE,21,3.0,3.0,75,0.00,,,0.18,462,Wunderground v.1.15,2013-04-17 20:29:00,
2013-04-17 16:39:00,69.4,60.4,30.13,North,5,3.0,3.0,73,0.00,,,0.18,251,Wunderground v.1.15,2013-04-17 20:39:00,
2013-04-17 16:50:00,68.5,59.9,30.13,NNW,346,2.0,4.0,74,0.00,,,0.18,225,Wunderground v.1.15,2013-04-17 20:50:00,
2013-04-17 17:00:00,68.5,60.3,30.13,NNE,19,3.0,4.0,75,0.00,,,0.18,236,Wunderground v.1.15,2013-04-17 21:00:00,
2013-04-17 17:10:00,68.3,60.1,30.13,NNE,15,3.0,4.0,75,0.00,,,0.18,209,Wunderground v.1.15,2013-04-17 21:10:00,
2013-04-17 17:19:00,68.2,60.0,30.13,NE,46,2.0,2.0,75,0.00,,,0.18,192,Wunderground v.1.15,2013-04-17 21:19:00,
2013-04-17 17:30:00,68.0,59.8,30.14,NNE,15,3.0,3.0,75,0.00,,,0.18,176,Wunderground v.1.15,2013-04-17 21:30:00,
2013-04-17 17:39:00,67.9,59.7,30.14,NNW,344,2.0,2.0,75,0.00,,,0.18,160,Wunderground v.1.15,2013-04-17 21:39:00,
2013-04-17 17:50:00,67.8,59.6,30.14,NNE,30,1.0,1.0,75,0.00,,,0.18,144,Wunderground v.1.15,2013-04-17 21:50:00,
2013-04-17 18:00:00,67.6,59.4,30.14,North,5,2.0,2.0,75,0.00,,,0.18,137,Wunderground v.1.15,2013-04-17 22:00:00,
2013-04-17 18:09:00,67.4,59.2,30.14,NNE,32,1.0,4.0,75,0.00,,,0.18,125,Wunderground v.1.15,2013-04-17 22:09:00,
2013-04-17 18:20:00,67.2,58.6,30.14,NNE,15,1.0,1.0,74,0.00,,,0.18,105,Wunderground v.1.15,2013-04-17 22:20:00,
2013-04-17 18:29:00,67.2,59.0,30.14,NE,44,1.0,2.0,75,0.00,,,0.18,97,Wunderground v.1.15,2013-04-17 22:29:00,
2013-04-17 18:40:00,67.1,58.9,30.15,NE,37,1.0,1.0,75,0.00,,,0.18,95,Wunderground v.1.15,2013-04-17 22:40:00,
2013-04-17 18:49:00,67.3,59.5,30.15,NNE,33,0.0,0.0,76,0.00,,,0.18,118,Wunderground v.1.15,2013-04-17 22:49:00,
2013-04-17 19:00:00,67.3,58.7,30.15,NNE,33,0.0,0.0,74,0.00,,,0.18,91,Wunderground v.1.15,2013-04-17 23:00:00,
2013-04-17 19:10:00,66.9,59.5,30.15,NNE,33,0.0,0.0,77,0.00,,,0.18,62,Wunderground v.1.15,2013-04-17 23:10:00,
2013-04-17 19:20:00,66.6,59.2,30.15,NNE,33,0.0,0.0,77,0.00,,,0.18,33,Wunderground v.1.15,2013-04-17 23:20:00,
2013-04-17 19:29:00,66.0,58.6,30.15,SE,140,0.0,0.0,77,0.00,,,0.18,21,Wunderground v.1.15,2013-04-17 23:29:00,
2013-04-17 19:40:00,65.8,58.7,30.16,SE,140,0.0,0.0,78,0.00,,,0.18,11,Wunderground v.1.15,2013-04-17 23:40:00,
2013-04-17 19:50:00,65.6,58.2,30.16,ESE,118,0.0,0.0,77,0.00,,,0.18,0,Wunderground v.1.15,2013-04-17 23:50:00,
2013-04-17 19:59:00,64.8,57.1,30.15,ESE,115,1.0,1.0,76,0.00,,,0.18,0,Wunderground v.1.15,2013-04-17 23:59:00,
2013-04-17 20:09:00,64.0,56.6,30.16,ESE,106,0.0,0.0,77,0.00,,,0.18,0,Wunderground v.1.15,2013-04-18 00:09:00,
2013-04-17 20:20:00,63.7,56.4,30.16,ESE,107,0.0,0.0,77,0.00,,,0.18,0,Wunderground v.1.15,2013-04-18 00:20:00,
2013-04-17 20:29:00,63.8,56.4,30.16,ESE,105,0.0,0.0,77,0.00,,,0.18,0,Wunderground v.1.15,2013-04-18 00:29:00,
2013-04-17 20:39:00,64.0,56.6,30.16,ESE,105,0.0,0.0,77,0.00,,,0.18,0,Wunderground v.1.15,2013-04-18 00:39:00,
2013-04-17 20:50:00,64.0,56.3,30.16,East,94,0.0,3.0,76,0.00,,,0.18,0,Wunderground v.1.15,2013-04-18 00:50:00,
2013-04-17 20:59:00,64.2,56.1,30.16,East,86,0.0,0.0,75,0.00,,,0.18,0,Wunderground v.1.15,2013-04-18 00:59:00,
2013-04-17 21:09:00,64.2,55.7,30.16,East,86,0.0,0.0,74,0.00,,,0.18,0,Wunderground v.1.15,2013-04-18 01:09:00,
2013-04-17 21:19:00,64.1,55.6,30.16,East,86,0.0,0.0,74,0.00,,,0.18,0,Wunderground v.1.15,2013-04-18 01:19:00,
2013-04-17 21:30:00,64.0,55.9,30.16,East,86,0.0,0.0,75,0.00,,,0.18,0,Wunderground v.1.15,2013-04-18 01:30:00,
2013-04-17 21:39:00,64.0,55.9,30.17,East,86,0.0,0.0,75,0.00,,,0.18,0,Wunderground v.1.15,2013-04-18 01:39:00,
2013-04-17 21:49:00,63.6,56.3,30.17,East,86,0.0,0.0,77,0.00,,,0.18,0,Wunderground v.1.15,2013-04-18 01:49:00,
2013-04-17 22:00:00,62.9,57.0,30.18,East,86,0.0,0.0,81,0.00,,,0.18,0,Wunderground v.1.15,2013-04-18 02:00:00,
2013-04-17 22:10:00,62.0,56.8,30.18,East,86,0.0,0.0,83,0.00,,,0.18,0,Wunderground v.1.15,2013-04-18 02:10:00,
2013-04-17 22:19:00,62.2,57.3,30.18,East,86,0.0,0.0,84,0.00,,,0.18,0,Wunderground v.1.15,2013-04-18 02:19:00,
2013-04-17 22:30:00,61.9,56.7,30.18,East,86,0.0,0.0,83,0.00,,,0.18,0,Wunderground v.1.15,2013-04-18 02:30:00,
2013-04-17 22:39:00,62.7,56.1,30.18,East,86,0.0,0.0,79,0.00,,,0.18,0,Wunderground v.1.15,2013-04-18 02:39:00,
2013-04-17 22:49:00,63.2,57.6,30.17,East,86,0.0,0.0,82,0.00,,,0.18,0,Wunderground v.1.15,2013-04-18 02:49:00,
2013-04-17 23:00:00,62.2,56.6,30.18,East,86,0.0,0.0,82,0.00,,,0.18,0,Wunderground v.1.15,2013-04-18 03:00:00,
2013-04-17 23:10:00,62.7,56.4,30.17,East,86,0.0,0.0,80,0.00,,,0.18,0,Wunderground v.1.15,2013-04-18 03:10:00,
2013-04-17 23:20:00,63.0,56.4,30.17,East,86,0.0,0.0,79,0.00,,,0.18,0,Wunderground v.1.15,2013-04-18 03:20:00,
2013-04-17 23:29:00,63.6,56.3,30.17,ESE,107,1.0,1.0,77,0.00,,,0.18,0,Wunderground v.1.15,2013-04-18 03:29:00,
2013-04-17 23:39:00,64.0,56.6,30.17,ESE,123,2.0,2.0,77,0.00,,,0.18,0,Wunderground v.1.15,2013-04-18 03:39:00,
2013-04-17 23:50:00,64.0,56.6,30.17,SE,132,2.0,2.0,77,0.00,,,0.18,0,Wunderground v.1.15,2013-04-18 03:50:00,
2013-04-17 23:59:00,64.0,56.6,30.18,ESE,123,1.0,3.0,77,0.00,,,0.00,0,Wunderground v.1.15,2013-04-18 03:59:00,